Lexington Weather

Lexington, Massachusetts, USA

34°F
10/30/2020 6:47am 
  • Lexington Conditions: Light snow, Mist, Overcast
  • Temperature: 34.0°F / 1.1°CColder 1.4°F than last hour.
  • Dew Point: 33.3°FDecreased 1.4°Fsince last hour.
  • Relative Humidity: 97
  • Wind: Wind from NNE NNE 2 mph, 10-min avg: 2 mph, gust: 4 mph
  • Barometer: 29.76 in Steady
  • Visibility: 4 miles
  • Rain Today: 0.09 in
  •   
Southeast Middlesex County - Winter Weather Advisory
 - SEE ALL NEARBY ALERTS -

Regional Weather Roundup
for Boston / Norton, MA

        
000
ASUS41 KBOX 250104
RWRBOX

REGIONAL WEATHER ROUNDUP
NATIONAL WEATHER SERVICE BOSTON/NORTON MA
900 PM EDT SAT OCT 24 2020

NOTE:  "FAIR" INDICATES FEW OR NO CLOUDS BELOW 12,000 FEET WITH NO 
SIGNIFICANT WEATHER AND/OR OBSTRUCTIONS TO VISIBILITY.

MAZALL-250200-
EASTERN MASSACHUSETTS
  
CITY           SKY/WX    TMP DP  RH WIND       PRES   REMARKS
BOSTON         MOCLDY    53  35  50 NW24G31   29.96R                  
BEVERLY        MOCLDY    52  40  63 NW16G22   29.95R                  
LAWRENCE       CLEAR     49  37  63 NW12G21   30.00R                  
BEDFORD        PTCLDY    51  38  60 NW14      29.97R                  
BLUE HILL        N/A     52  42  69 NW18G25   29.94R                  
NORWOOD        CLOUDY    56  42  59 N7        29.96R                  
MARSHFIELD     CLOUDY    59  45  58 NW8G18    29.94R                  
PLYMOUTH       CLOUDY    59  47  64 NW12G24   29.93R                  
TAUNTON        CLOUDY    60  46  59 VRB7G18   29.94R                  
NEW BEDFORD    CLOUDY    64  57  78 NW7       29.91R                  
$$

MAZALL-250200-
CAPE COD AND THE ISLANDS
  
CITY           SKY/WX    TMP DP  RH WIND       PRES   REMARKS
FALMOUTH       MOCLDY    59  59 100 NE12      29.91R                  
HYANNIS        CLOUDY    60  55  83 N13G18    29.91R                  
CHATHAM        CLOUDY    61  54  77 NW8G24    29.91R                  
PROVINCETOWN   CLOUDY    58  49  72 NW21G26   29.93R                  
NANTUCKET      CLOUDY   N/A N/A N/A W12       29.90R                  
MARTHAS VNYRD  CLOUDY    63  61  93 W6        29.91R                  
$$
 
MAZALL-250200-
CENTRAL AND WESTERN MASSACHUSETTS
  
CITY           SKY/WX    TMP DP  RH WIND       PRES   REMARKS
WORCESTER      CLEAR     50  39  66 NW9G18    29.98R                  
FITCHBURG      CLEAR     50  41  71 N10       30.00R                  
ORANGE         CLEAR     49  38  65 N15       30.02R                  
SPRINGFIELD    PTCLDY    53  40  62 N12       29.99R                  
WESTFIELD      CLEAR     50  40  68 NW10      30.00R                  
NORTH ADAMS    MOCLDY    46  35  65 W14       30.06R                  
PITTSFIELD     CLOUDY    44  35  70 NW8       30.03S                  
$$
 
RIZALL-250200-
RHODE ISLAND
  
CITY           SKY/WX    TMP DP  RH WIND       PRES   REMARKS
PROVIDENCE     CLOUDY    60  48  64 NW13G21   29.95R                  
NEWPORT        CLOUDY    60  53  77 NW13      29.93R                  
BLOCK ISLAND   CLOUDY    60  50  69 NW8       29.94R                  
SMITHFIELD     PTCLDY    56  47  71 N14       29.96R                  
WESTERLY       MOCLDY    59  47  64 N7        29.95R                  
$$
 
CTZALL-250200-
CONNECTICUT
  
CITY           SKY/WX    TMP DP  RH WIND       PRES   REMARKS
BRADLEY INTL   PTCLDY    51  40  65 NW8       30.00R                  
HARTFORD       CLEAR     53  40  61 NW12G21   30.00R                  
BRIDGEPORT     CLEAR     54  40  59 N13       29.99R                  
DANBURY        CLEAR     49  37  63 N9        30.03R                  
GROTON         CLOUDY    58  47  66 NW13      29.95R                  
NEW HAVEN      CLEAR     55  42  61 N10       29.98R                  
CHESTER        FAIR      54  45  71 NW9G15    29.98R                  
MERIDEN        CLEAR     52  40  63 N6        30.00R                  
WILLIMANTIC    CLEAR     54  43  66 NW12      29.98R                  
OXFORD         CLEAR     49  40  71 N10       30.01R                  
$$

MEZ002-015-021-024-NHZ003-005-008-011-012-014-VTZ005-008-250200-
NORTHERN NEW ENGLAND
  
CITY           SKY/WX    TMP DP  RH WIND       PRES   REMARKS
PORTLAND ME    MOCLDY    48  37  65 NW15G22   29.96R                  
BANGOR ME      PTCLDY    45  35  68 NW8       29.95R                  
CONCORD NH     CLEAR     44  33  65 NW9       30.00R                  
MANCHESTER NH  CLEAR     47  33  58 NW13G23   29.99R                  
NASHUA NH      CLEAR     47  36  65 N10G20    30.01R                  
PORTSMOUTH NH  MOCLDY    49  36  61 W12       29.95R                  
JAFFREY NH     CLEAR     44  33  65 VRB3      30.02R                  
KEENE NH       PTCLDY    44  33  65 N12       30.05R                  
BURLINGTON VT  CLOUDY    46  31  55 NW10      30.11R                  
MT. WASHINGTON FOG       21  21 100 W28         N/A  VSB 0   WCI   3  
$$

NYZ052-076-250200-
EASTERN NEW YORK
  
CITY           SKY/WX    TMP DP  RH WIND       PRES   REMARKS
ALBANY         CLOUDY    43  34  70 NW13      30.10R                  
NEW YORK CITY  MOCLDY    58  41  53 NW15      30.01R                  
$$
 
ANZALL-250200-
MARINE OBSERVATIONS
  
STATION/POSITION TIME  TEMP    WIND        PRES    VSBY  WAVE
                       AIR SEA DIR/SP/G                  HT/PER
                 (UTC) (F)     (DEG/KT/KT) (MB)    (MI)  (FT/S)
BOSTON BUOY      0050   57 59  320/ 17/ 19 1012.3R         6/10
BUZZARDS BAY     0000          280/ 13/ 14 1013.3R
NANTUCKET SOUND  0050      62  260/ 10/ 14   N/A           2/ 3
MASS BAY-STELLWA 0004   58 58  320/ 19/ 25 1011.5R  1 7/8
ISLE OF SHOALS   NOT AVBL
S OF BLOCK IS    0026      63                N/A           5/11
$$

......................KEY.........................
  SKY/WX - SKY CONDITION/PRESENT WEATHER
  TMP    - TEMPERATURE IN FAHRENHEIT
  DWPT   - DEWPOINT IN FAHRENHEIT
  RH     - RELATIVE HUMIDITY IN PERCENT
  WIND   - DIRECTION AND SPEED IN MPH
  PRES   - MEAN SEA LEVEL PRESSURE IN INCHES OF HG
  WCI    - WIND CHILL INDEX
  VSB    - VISIBILITY IN MILES
  HX     - HEAT INDEX
  TC     - TEMPERATURE IN CELSIUS
  VRB    - VARIABLE WIND DIRECTION
  N/A    - NOT AVAILABLE
  
      

Other recent Regional Weather Roundups

Fri Oct 30, 6:04am

Fri Oct 30, 5:04am

Fri Oct 30, 4:04am

Fri Oct 30, 3:04am

Fri Oct 30, 2:04am

Fri Oct 30, 1:04am

Fri Oct 30, 12:04am

Thu Oct 29, 11:04pm

Thu Oct 29, 10:04pm

Thu Oct 29, 9:04pm

Thu Oct 29, 8:04pm

Thu Oct 29, 7:04pm

Thu Oct 29, 6:04pm

Thu Oct 29, 5:05pm

Thu Oct 29, 4:05pm

Thu Oct 29, 3:05pm

Thu Oct 29, 2:04pm

Thu Oct 29, 1:04pm

Thu Oct 29, 12:04pm

Thu Oct 29, 11:04am

Thu Oct 29, 10:04am

Thu Oct 29, 9:04am

Thu Oct 29, 8:04am

Thu Oct 29, 7:04am

Thu Oct 29, 6:04am

Thu Oct 29, 5:04am

Thu Oct 29, 4:04am

Thu Oct 29, 3:04am

Thu Oct 29, 2:04am

Thu Oct 29, 1:05am

Thu Oct 29, 12:04am

Wed Oct 28, 11:05pm

Wed Oct 28, 10:04pm

Wed Oct 28, 9:04pm

Wed Oct 28, 8:04pm

Wed Oct 28, 7:05pm

Wed Oct 28, 6:04pm

Wed Oct 28, 5:05pm

Wed Oct 28, 4:04pm

Wed Oct 28, 3:04pm

Wed Oct 28, 2:04pm

Wed Oct 28, 1:05pm

Wed Oct 28, 12:05pm

Wed Oct 28, 11:05am

Wed Oct 28, 10:04am

Wed Oct 28, 9:04am

Wed Oct 28, 8:04am

Wed Oct 28, 7:04am

Wed Oct 28, 6:04am

Wed Oct 28, 5:05am

Wed Oct 28, 4:04am

Wed Oct 28, 3:04am

Wed Oct 28, 2:04am

Wed Oct 28, 1:05am

Wed Oct 28, 12:04am

Tue Oct 27, 11:04pm

Tue Oct 27, 10:04pm

Tue Oct 27, 9:05pm

Tue Oct 27, 8:04pm

Tue Oct 27, 7:04pm

Tue Oct 27, 6:04pm

Tue Oct 27, 5:04pm

Tue Oct 27, 4:05pm

Tue Oct 27, 3:04pm

Tue Oct 27, 2:04pm

Tue Oct 27, 1:04pm

Tue Oct 27, 12:04pm

Tue Oct 27, 11:04am

Tue Oct 27, 10:04am

Tue Oct 27, 9:04am

Tue Oct 27, 8:04am

Tue Oct 27, 7:04am

Tue Oct 27, 6:04am

Tue Oct 27, 5:04am

Tue Oct 27, 4:04am

Tue Oct 27, 3:04am

Tue Oct 27, 2:05am

Tue Oct 27, 1:04am

Tue Oct 27, 12:04am

Mon Oct 26, 11:05pm

Mon Oct 26, 10:04pm

Mon Oct 26, 9:04pm

Mon Oct 26, 8:04pm

Mon Oct 26, 7:04pm

Mon Oct 26, 6:04pm

Mon Oct 26, 5:04pm

Mon Oct 26, 4:05pm

Mon Oct 26, 2:04pm

Mon Oct 26, 1:04pm

Mon Oct 26, 12:04pm

Mon Oct 26, 11:05am

Mon Oct 26, 10:04am

Mon Oct 26, 9:04am

Mon Oct 26, 8:04am

Mon Oct 26, 7:04am

Mon Oct 26, 6:04am

Mon Oct 26, 5:04am

Mon Oct 26, 4:04am

Mon Oct 26, 3:04am

Mon Oct 26, 2:04am

Mon Oct 26, 1:04am

Mon Oct 26, 12:04am

Sun Oct 25, 11:05pm

Sun Oct 25, 10:04pm

Sun Oct 25, 9:04pm

Sun Oct 25, 8:04pm

Sun Oct 25, 7:04pm

Sun Oct 25, 6:04pm

Sun Oct 25, 5:04pm

Sun Oct 25, 4:05pm

Sun Oct 25, 3:04pm

Sun Oct 25, 2:04pm

Sun Oct 25, 1:04pm

Sun Oct 25, 12:04pm

Sun Oct 25, 11:04am

Sun Oct 25, 10:04am

Sun Oct 25, 9:04am

Sun Oct 25, 8:04am

Sun Oct 25, 7:04am

Sun Oct 25, 6:04am

Sun Oct 25, 5:04am

Sun Oct 25, 4:04am

Sun Oct 25, 3:04am

Sun Oct 25, 2:04am

Sun Oct 25, 1:05am

Sun Oct 25, 12:04am

Sat Oct 24, 11:04pm

Sat Oct 24, 10:04pm

Sat Oct 24, 8:04pm

Sat Oct 24, 7:04pm

Sat Oct 24, 6:04pm

Sat Oct 24, 5:05pm

Sat Oct 24, 4:04pm

Sat Oct 24, 3:04pm

Sat Oct 24, 2:04pm

Sat Oct 24, 1:05pm

Sat Oct 24, 12:04pm

Sat Oct 24, 11:05am

Sat Oct 24, 10:05am

Sat Oct 24, 9:04am

Sat Oct 24, 8:04am

Sat Oct 24, 7:04am

Sat Oct 24, 6:04am

Sat Oct 24, 5:04am

Sat Oct 24, 4:04am

Sat Oct 24, 3:04am

Sat Oct 24, 2:04am

Sat Oct 24, 1:05am

Sat Oct 24, 12:04am

Fri Oct 23, 11:04pm

Fri Oct 23, 10:04pm

Fri Oct 23, 9:04pm

Fri Oct 23, 8:05pm

Fri Oct 23, 7:04pm

Fri Oct 23, 6:04pm

Fri Oct 23, 5:05pm

Fri Oct 23, 4:04pm

Fri Oct 23, 3:04pm

Fri Oct 23, 2:05pm

Fri Oct 23, 1:04pm

Fri Oct 23, 12:04pm

Fri Oct 23, 11:04am

Fri Oct 23, 10:04am

Fri Oct 23, 9:04am

Fri Oct 23, 8:04am

Fri Oct 23, 7:04am

Meta data:

ID: 83d9858b-33fd-4a2d-b61d-8caab2864b71
Link: https://api.weather.gov/products/83d9858b-33fd-4a2d-b61d-8caab2864b71